Other Surface Observations
Issued by NWS Charleston, SC

Home | Current Version | Previous Version | Text Only | Print | Product List | Glossary On
Versions: 1 2 3 4 5 6 7 8 9 10 11 12 13 14 15 16 17 18 19 20 21 22 23 24 25 26 27 28 29 30 31 32 33 34 35 36 37 38 39 40 41 42 43 44 45 46 47 48 49 50
917
SXUS52 KCHS 061227
OSOCHS

MARINE OBSERVATIONS
NATIONAL WEATHER SERVICE CHARLESTON SC
700 AM EST TUE DEC 06 2016

...DOWNTOWN CHARLESTON AND HARBOR...

CITY           SKY/WX    TMP DP  RH WIND       PRES   REMARKS
WATERFRONT PRK   N/A     59  59 100 N7        29.79F

...LAKE MOULTRIE...

CITY           SKY/WX    TMP DP  RH WIND       PRES   REMARKS
PINOPOLIS        N/A    N/A N/A N/A N7          N/A

...LAKE AND SUPPLEMENTAL COASTAL OBSERVATIONS...

STATION/POSITION TIME  TEMP    WIND        PRES    WAVE   SWELL
                       AIR SEA DIR/SP/G            HT/PER HT/PER/DIR
                 (UTC) (F)     (DEG/KT/KT) (MB)    (FT/S) (FT/S/D)
FORT PULASKI     1200   60 62   10/  5/  6 1008.9
SAPELO ISLAND    1200   67     150/  7     1008.0
WINYAH BAY       1145   57      30/ 11     1010.0S
LAKE MURRAY      1130   52      30/  3/  8 1010.5R
ACE BASIN NERRS  1145   59      10/  5     1009.0S


...C-MAN AND BUOY OBSERVATIONS...

STATION/POSITION TIME  TEMP    WIND        PRES    WAVE   SWELL
                       AIR SEA DIR/SP/G            HT/PER HT/PER/DIR
                 (UTC) (F)     (DEG/KT/KT) (MB)    (FT/S) (FT/S/D)
BUOY 41004       1150   73 74  170/ 10/ 14 1008.1F   7/ 6   7/ 50/ 6
BUOY 41008       1150   68 65  180/ 14/ 16 1008.3F   4/ 5   2/ 10/11
FOLLY BEACH CMAN 1200   63      50/ 13/ 16 1009.0F
CAPERS NS BUOY   1108   62 60   80/ 21/ 33 1008.9F
FRIPP NS BUOY    1208   64 62  280/  6/ 19 1008.9F
5E ST. MARYS GA  1200      66                N/A     3/ 6


STATION/POSITION TIME  TEMP    WIND        PRES    WAVE   SWELL
                       AIR SEA DIR/SP/G            HT/PER HT/PER/DIR
                 (UTC) (F)     (DEG/KT/KT) (MB)    (FT/S) (FT/S/D)
FRYING PAN BUOY  1210   69 74   50/ 17/ 27 1010.8
BUOY 41025       1150   65 76   90/ 17/ 23 1014.0F   6/ 8   2/ 60/11
CAPE LOOKOUT NC  1200   59      50/ 20/ 23 1012.9F
BUOY 41002       1150   74 74  180/ 16/ 19 1014.2F   6/ 6   2/ 10/ 9
BUOY 41010       NOT AVBL
ST AUGUSTINE FL  1200   72 68  200/  7/  9 1011.1R

$$




USA.gov is the U.S. government's official web portal to all federal, state and local government web resources and services.